Regional Weather Roundup
Issued by NWS Charleston, SC

Current Version | Previous Version | Text Only | Print | Product List | Glossary Off
Versions: 1 2 3 4 5 6 7 8 9 10 11 12 13 14 15 16 17 18 19 20 21 22 23 24 25 26 27 28 29 30 31 32 33 34 35 36 37 38 39 40 41 42 43 44 45 46 47 48 49 50

000
ASUS42 KCHS 200825
RWRCHS

REGIONAL WEATHER ROUNDUP
NATIONAL WEATHER SERVICE CHARLESTON SC
400 AM EDT SUN APR 20 2014

NOTE: "FAIR" INDICATES FEW OR NO CLOUDS BELOW 12,000 FEET WITH NO
SIGNIFICANT WEATHER AND/OR OBSTRUCTIONS TO VISIBILITY.

NOT ALL STATIONS ARE QUALITY CONTROLLED BY THE NATIONAL
WEATHER SERVICE. USE DATA WITH CAUTION...ESPECIALLY
DEWPOINT OBSERVATIONS.

SCZ027-030-031-034>040-042>050-200900-
...SOUTH CAROLINA...

CITY           SKY/WX    TMP DP  RH WIND       PRES   REMARKS
N CHARLESTON   LGT RAIN  53  50  89 N12       30.03S
WATERFRONT PRK   N/A     55 N/A N/A SW13        N/A
FORT JOHNSON     N/A     54  54 100 N12       30.07R
MOUNT PLEASANT CLOUDY   N/A N/A N/A N8        30.01S
JOHNS ISLAND   CLOUDY    54  54 100 N10       30.03R
PINOPOLIS        N/A     52  50  93 NE17      29.95F
MONCKS CORNER  RAIN      52  52 100 N10G16    30.04R
SUMMERVILLE    NOT AVBL
BEAUFORT MCAS  CLOUDY    54  51  90 NE13      30.04S
BEAUFORT ARPT  CLOUDY    54  54 100 N9G18     30.04S FOG
HILTON HEAD IS CLOUDY    54  54 100 N13G20    30.06R
GEORGETOWN     NOT AVBL
WALTERBORO     CLOUDY    52 N/A N/A N5        30.08R
ORANGEBURG     LGT RAIN  50  47  89 NE13G21   30.10R
BARNWELL       CLOUDY    50  48  93 NE9       30.12R FOG
AIKEN          CLOUDY    50  50 100 NE8       30.16R
MANNING        CLOUDY    52 N/A N/A N10G16    30.07F
KINGSTREE      NOT AVBL
COLUMBIA       LGT RAIN  54  45  71 NE9G16    30.12S
SUMTER         DRIZZLE   48  46  93 NE13      30.10S
FLORENCE       LGT RAIN  50  46  86 NE16      30.09S
MYRTLE BEACH   CLOUDY    54  52  94 N10G18    30.02S
N MYRTLE BEACH LGT RAIN  53  51  93 NE17G25   30.01R

$$

GAZ063-065-086>088-099>101-113>116-118-119-134-136>141-150-200900-
...GEORGIA...

CITY           SKY/WX    TMP DP  RH WIND       PRES   REMARKS
SAVANNAH ARPT  CLOUDY    54  50  86 N8        30.05S
HUNTER AAF     CLOUDY    54  52  91 VRB3      30.03F
FORT STEWART   CLOUDY    54  54 100 N8        30.03F
STATESBORO     NOT AVBL
SYLVANIA       CLOUDY    53  50  90 NE10G17   30.10R FOG
CLAXTON        CLOUDY    54  54 100 N3        30.07R
THOMSON        CLOUDY    49  49 100 N7        30.21R
AUGUSTA-BUSH   CLOUDY    50  47  89 N9        30.14R
AUGUSTA-DANIEL CLOUDY    51  47  86 N5        30.14R
SWAINSBORO     CLOUDY    50  50 100 NE9G17    30.10R
VIDALIA        CLOUDY    54  52  94 N12G21    30.08R
ALMA           CLOUDY    53  51  93 N9        30.06R
WAYCROSS       NOT AVBL
JESUP          DRIZZLE   52  52 100 NE8       30.06S
BRUNSWICK      CLOUDY    54  54 100 N5        30.04R
SAINT SIMONS   LGT RAIN  55  54  96 N9        30.02S

$$

SCZ027-028-034-036>038-045-046-048>050-GAZ119-141-200900-
...LAKE AND SUPPLEMENTAL COASTAL OBSERVATIONS...

STATION/POSITION TIME  TEMP    WIND        PRES    WAVE   SWELL
                       AIR SEA DIR/SP/G            HT/PER HT/PER/DIR
                 (UTC) (F)     (DEG/KT/KT) (MB)    (FT/S) (FT/S/D)
UPR LAKE MARION  NOT AVBL
WINYAH BAY       0800   53      10/  8     1016.0S
LAKE MURRAY      0800   54      20/  5/  9 1019.6F
ACE BASIN NERRS  0800   53      10/  4     1017.0S
FORT PULASKI     0800   54 58  360/ 10/ 13 1017.4R
SAPELO ISLAND    0800   55      20/ 13     1016.0S

$$

ANZ835-935-AMZ111-154-330-350-352-354-374-450-454-472-200900-
...C-MAN AND BUOY OBSERVATIONS...

STATION/POSITION TIME  TEMP    WIND        PRES    WAVE   SWELL
                       AIR SEA DIR/SP/G            HT/PER HT/PER/DIR
                 (UTC) (F)     (DEG/KT/KT) (MB)    (FT/S) (FT/S/D)
FOLLY BEACH CMAN 0800   54     360/ 15/ 19 1016.7R
BUOY 41004       NOT AVBL
BUOY 41008       0800   58 63   10/ 17/ 23 1015.5F   6/ 7   3/ 70/ 8
5E ST. MARYS GA  0800      64                N/A     6/ 8   2/120/11
FRYING PAN BUOY  0800   61 68   40/ 35/ 43 1011.6F  10/ 8   3/ 60/11
BUOY 41025       0700   63 75   20/ 27/ 35 1015.7   14/11  10/ 50/11
CAPE LOOKOUT NC  0800   57      20/ 26/ 33 1016.5F
BUOY 41002       NOT AVBL
BUOY 41010       0800   72 76  290/ 16/ 19 1011.8R   6/ 8   3/ 70/ 8
BUOY 41012       NOT AVBL
ST AUGUSTINE FL  0800   61     360/ 22/ 25 1015.5R
CAPERS NEARSHORE NOT AVBL
FRIPP NEARSHORE  0700   54      10/ 21/ 23   N/A


$$


USA.gov is the U.S. government's official web portal to all federal, state and local government web resources and services.